Location: Malanoce
(44.2500°N, 7.4667°E)
Time: 21:05:27
(UTC+00:00)

MOS 1 Rocket - Pass Details

Date: 17 November 2025
Orbit: 610 x 813 km, 97.4° (Epoch: 11 December)

Event Time Altitude Azimuth Distance (km) Brightness Sun altitude
Rises 16:52:14 0° 146° (SE) 2,870 6.3 -9.3°
Reaches altitude 10° 16:54:28 10° 139° (SE) 1,981 5.4 -9.7°
Maximum altitude 16:58:27 39° 70° (ENE) 958 3.5 -10.3°
Drops below altitude 10° 17:02:37 10° 2° (N) 2,070 5.6 -11.1°
Sets 17:05:00 0° 355° (N) 3,017 6.5 -11.5°
